EW3149 Weather Reports


time (UTC)temp
C
wind
direction
speed
KPH
gust
KPH
rain 1hr
cm
rain 24hr
cm
rain mn
cm
humidity
%
barometer
mb
20260509054401 11 226 8.0 12.9 0.00 0.33 0.00 96 1008.0
20260509053401 11 339 6.4 12.9 0.00 0.33 0.00 96 1008.1
20260509052901 11 343 6.4 9.7 0.00 0.33 0.00 96 1008.1
20260509052401 11 350 8.0 12.9 0.00 0.33 0.00 96 1008.0
20260509051901 11 219 8.0 9.7 0.00 0.33 0.00 96 1008.0
20260509051402 11 319 9.7 14.5 0.00 0.33 0.00 96 1008.0
20260509050902 11 303 8.0 12.9 0.00 0.33 0.00 96 1008.0
20260509045901 11 352 4.8 8.0 0.00 0.33 0.00 96 1008.1
20260509045401 11 261 4.8 9.7 0.00 0.33 0.00 96 1008.0
20260509044901 11 343 8.0 12.9 0.00 0.33 0.00 96 1008.2
20260509043901 11 223 6.4 9.7 0.00 0.33 0.00 95 1008.1
20260509043401 11 346 4.8 9.7 0.00 0.33 0.00 96 1008.2
20260509042901 11 350 3.2 4.8 0.00 0.33 0.00 96 1008.1
20260509042401 11 305 4.8 8.0 0.00 0.33 0.00 96 1008.1
20260509041901 11 321 4.8 8.0 0.00 0.33 0.00 96 1008.2
20260509041401 11 238 4.8 4.8 0.00 0.33 0.00 95 1008.2
20260509040901 11 200 3.2 4.8 0.00 0.33 0.00 95 1008.1
20260509040401 11 205 1.6 3.2 0.00 0.33 0.00 95 1008.1
20260509035902 11 205 0.0 1.6 0.00 0.33 0.33 95 1008.1
20260509035401 11 204 1.6 3.2 0.00 0.33 0.33 95 1008.1
20260509034401 11 205 3.2 4.8 0.00 0.33 0.33 95 1008.3
20260509033901 11 205 3.2 4.8 0.00 0.33 0.33 95 1008.3
20260509033402 11 205 0.0 0.0 0.00 0.33 0.33 95 1008.5
20260509032901 11 205 0.0 1.6 0.00 0.33 0.33 95 1008.5
20260509032401 11 205 1.6 4.8 0.00 0.33 0.33 95 1008.5
20260509031902 11 205 3.2 4.8 0.00 0.33 0.33 95 1008.5
20260509030401 12 205 3.2 4.8 0.00 0.33 0.33 94 1008.6
20260509025901 12 205 4.8 4.8 0.00 0.33 0.33 95 1008.6
20260509025401 12 208 0.0 4.8 0.00 0.33 0.33 95 1008.5
20260509024901 12 205 1.6 4.8 0.00 0.33 0.33 94 1008.5
20260509024402 12 205 3.2 4.8 0.00 0.33 0.33 94 1008.5
20260509023402 12 210 3.2 4.8 0.00 0.33 0.33 94 1008.5
20260509022901 12 206 4.8 4.8 0.00 0.33 0.33 94 1008.5
20260509022401 12 206 3.2 4.8 0.00 0.33 0.33 94 1008.5
20260509021902 12 216 3.2 4.8 0.00 0.33 0.33 94 1008.5
20260509021402 12 211 3.2 8.0 0.00 0.33 0.33 93 1008.5
20260509020402 12 261 4.8 4.8 0.00 0.33 0.33 93 1008.5
20260509015901 12 345 3.2 4.8 0.00 0.33 0.33 93 1008.5
20260509015401 12 211 4.8 8.0 0.00 0.33 0.33 93 1008.5
20260509014902 12 345 3.2 9.7 0.00 0.33 0.33 93 1008.5
20260509014402 12 359 6.4 9.7 0.00 0.33 0.33 93 1008.5
20260509013902 12 359 4.8 9.7 0.00 0.33 0.33 93 1008.5
20260509013401 12 351 8.0 11.3 0.00 0.33 0.33 93 1008.5
20260509012902 12 358 4.8 9.7 0.00 0.33 0.33 92 1008.5
20260509012402 12 354 8.0 12.9 0.00 0.33 0.33 92 1008.5
20260509011902 12 350 8.0 12.9 0.00 0.33 0.33 92 1008.4
20260509011401 12 333 9.7 14.5 0.00 0.33 0.33 92 1008.4
20260509010901 12 354 11.3 19.3 0.00 0.33 0.33 92 1008.4
20260509005901 12 0 12.9 19.3 0.00 0.33 0.33 91 1008.4
20260509005402 12 329 12.9 19.3 0.00 0.33 0.33 91 1008.4
20260509004902 12 335 12.9 16.1 0.00 0.33 0.33 91 1008.3
20260509004401 13 338 9.7 19.3 0.00 0.33 0.33 91 1008.3
20260509003902 13 348 11.3 19.3 0.00 0.33 0.33 91 1008.3
20260509003402 13 349 11.3 19.3 0.00 0.33 0.33 91 1008.4
20260509002901 13 342 11.3 22.5 0.00 0.33 0.33 91 1008.4
20260509002402 13 350 12.9 19.3 0.00 0.33 0.33 91 1008.3
20260509001902 13 322 11.3 19.3 0.00 0.33 0.33 91 1008.4
20260509001401 13 270 11.3 16.1 0.00 0.33 0.33 91 1008.5
20260509000403 13 274 8.0 16.1 0.00 0.33 0.33 91 1008.4
20260508234901 13 346 11.3 20.9 0.00 0.33 0.33 92 1008.5
20260508233901 13 250 9.7 16.1 0.00 0.33 0.33 92 1008.6
20260508232901 13 343 9.7 19.3 0.00 0.33 0.33 91 1008.6
20260508232402 13 348 11.3 19.3 0.00 0.33 0.33 91 1008.6
20260508231902 13 0 9.7 19.3 0.00 0.33 0.33 91 1008.6
20260508231402 13 346 11.3 19.3 0.00 0.33 0.33 91 1008.7
20260508230902 13 330 9.7 19.3 0.00 0.33 0.33 91 1008.6
20260508225902 13 351 9.7 16.1 0.00 0.33 0.33 92 1008.6
20260508225402 13 352 8.0 12.9 0.00 0.33 0.33 92 1008.7
20260508224902 13 333 9.7 16.1 0.00 0.33 0.33 92 1008.8
20260508224401 13 336 8.0 16.1 0.00 0.33 0.33 92 1008.7
20260508223902 13 225 8.0 11.3 0.03 0.33 0.33 92 1008.8
20260508222902 13 348 8.0 14.5 0.03 0.33 0.33 92 1008.7
20260508222402 13 349 9.7 16.1 0.03 0.33 0.33 92 1008.7
20260508221902 13 335 9.7 14.5 0.03 0.33 0.33 92 1008.8
20260508220902 13 292 8.0 9.7 0.03 0.33 0.33 92 1008.8
20260508220402 13 356 8.0 12.9 0.03 0.33 0.33 92 1008.7
20260508215901 13 358 8.0 14.5 0.03 0.33 0.33 91 1008.7
20260508213902 13 347 9.7 16.1 0.03 0.30 0.30 90 1008.8
20260508213402 13 344 11.3 22.5 0.03 0.30 0.30 91 1008.8
20260508212903 13 349 14.5 24.1 0.05 0.30 0.30 91 1008.9
20260508210902 13 326 9.7 19.3 0.10 0.30 0.30 94 1009.1
20260508210402 13 327 11.3 19.3 0.10 0.30 0.30 93 1009.1
20260508205902 13 252 11.3 14.5 0.13 0.30 0.30 93 1009.2
20260508205402 13 354 9.7 14.5 0.15 0.30 0.30 93 1009.3
20260508204902 13 247 8.0 14.5 0.15 0.30 0.30 93 1009.2
20260508204402 13 323 8.0 16.1 0.15 0.30 0.30 93 1009.4
20260508202902 13 264 8.0 12.9 0.15 0.25 0.25 93 1009.7
20260508202402 13 348 4.8 12.9 0.18 0.25 0.25 92 1009.7
20260508201902 13 329 9.7 14.5 0.18 0.23 0.23 92 1009.8
20260508201402 13 302 8.0 14.5 0.18 0.23 0.23 92 1009.7
20260508200902 13 327 8.0 11.3 0.18 0.20 0.20 93 1009.8
20260508195403 13 341 8.0 12.9 0.13 0.15 0.15 92 1010.1
20260508194903 13 339 8.0 14.5 0.13 0.15 0.15 91 1010.1
20260508194402 13 336 9.7 19.3 0.13 0.15 0.15 91 1010.3
20260508193402 13 342 11.3 19.3 0.08 0.10 0.10 89 1010.3
20260508192403 13 303 9.7 19.3 0.05 0.08 0.08 87 1010.4
20260508191402 13 344 14.5 24.1 0.03 0.05 0.05 84 1010.4
20260508190902 14 355 17.7 25.7 0.00 0.03 0.03 83 1010.5
20260508190402 14 355 19.3 27.4 0.00 0.03 0.03 81 1010.4
20260508185902 15 328 16.1 25.7 0.00 0.03 0.03 83 1010.3
20260508185403 15 354 12.9 20.9 0.00 0.03 0.03 82 1010.2
20260508184903 15 354 17.7 24.1 0.00 0.03 0.03 80 1010.2
20260508183903 15 346 20.9 32.2 0.00 0.03 0.03 77 1010.3
20260508183402 15 353 16.1 29.0 0.00 0.03 0.03 75 1010.3
20260508182902 16 354 17.7 29.0 0.00 0.03 0.03 71 1010.3
20260508182402 16 346 22.5 32.2 0.00 0.03 0.03 68 1010.2
20260508181903 17 356 24.1 37.0 0.00 0.03 0.03 65 1010.2
20260508181403 17 343 20.9 32.2 0.00 0.03 0.03 66 1010.2
20260508180902 17 351 16.1 24.1 0.00 0.03 0.03 67 1010.2
20260508180402 16 333 11.3 20.9 0.00 0.03 0.03 70 1010.3
20260508175902 16 350 14.5 25.7 0.00 0.03 0.03 69 1010.3
20260508174903 16 294 8.0 12.9 0.00 0.03 0.03 69 1010.5
20260508174403 16 357 8.0 12.9 0.00 0.03 0.03 70 1010.6
20260508173903 16 345 9.7 19.3 0.00 0.03 0.03 69 1010.7
20260508173402 16 204 9.7 19.3 0.00 0.03 0.03 69 1010.7
20260508172902 16 343 8.0 16.1 0.00 0.03 0.03 70 1010.8
20260508172403 16 313 11.3 19.3 0.00 0.03 0.03 68 1010.9
20260508171902 16 356 14.5 19.3 0.00 0.03 0.03 67 1010.9
20260508171403 16 253 9.7 19.3 0.00 0.03 0.03 68 1011.0
20260508170902 16 321 16.1 25.7 0.00 0.03 0.03 68 1011.1
20260508170402 16 358 17.7 24.1 0.00 0.03 0.03 68 1011.2
20260508165903 16 344 16.1 22.5 0.00 0.03 0.03 67 1011.3
20260508165403 15 349 11.3 16.1 0.00 0.03 0.03 68 1011.4
20260508164903 15 318 9.7 19.3 0.00 0.03 0.03 68 1011.5
20260508164402 15 315 8.0 22.5 0.00 0.03 0.03 69 1011.6
20260508163903 15 342 12.9 24.1 0.00 0.03 0.03 69 1011.8
20260508163403 15 353 12.9 19.3 0.00 0.03 0.03 70 1011.9
20260508162902 14 335 11.3 19.3 0.00 0.03 0.03 70 1012.0
20260508161902 14 346 19.3 24.1 0.00 0.03 0.03 70 1012.2
20260508160903 15 328 12.9 22.5 0.00 0.03 0.03 70 1012.1
20260508160403 15 246 14.5 22.5 0.00 0.03 0.03 71 1012.1
20260508155903 15 0 16.1 19.3 0.00 0.03 0.03 70 1012.1
20260508155403 15 349 17.7 22.5 0.00 0.03 0.03 69 1012.1
20260508154902 15 354 14.5 22.5 0.00 0.03 0.03 73 1012.1
20260508154403 15 354 14.5 20.9 0.00 0.03 0.03 73 1012.2
20260508153903 14 0 12.9 19.3 0.00 0.03 0.03 72 1012.2
20260508153403 14 0 12.9 19.3 0.00 0.03 0.03 72 1012.3
20260508152903 14 0 14.5 19.3 0.00 0.03 0.03 73 1012.3
20260508151903 13 358 14.5 20.9 0.00 0.03 0.03 76 1012.4
20260508151403 13 345 8.0 12.9 0.00 0.03 0.03 78 1012.4
20260508150903 12 347 11.3 16.1 0.00 0.03 0.03 77 1012.4
20260508150403 12 294 8.0 14.5 0.00 0.03 0.03 77 1012.5
20260508145903 12 318 6.4 14.5 0.00 0.03 0.03 80 1012.6
20260508145403 12 278 6.4 14.5 0.00 0.03 0.03 80 1012.7
20260508144903 12 290 6.4 11.3 0.00 0.03 0.03 81 1012.7
20260508143903 11 270 3.2 4.8 0.03 0.03 0.03 85 1012.9
20260508143403 11 276 1.6 3.2 0.03 0.03 0.03 85 1012.9
20260508142903 11 331 1.6 4.8 0.03 0.03 0.03 86 1013.0
20260508142402 11 263 1.6 4.8 0.03 0.03 0.03 85 1012.8
20260508140903 11 274 1.6 4.8 0.03 0.03 0.03 86 1013.1
20260508140403 11 248 0.0 3.2 0.03 0.03 0.03 86 1013.2
20260508135903 11 248 3.2 4.8 0.03 0.03 0.03 85 1013.3
20260508134903 11 295 8.0 12.9 0.03 0.03 0.03 83 1013.3
20260508134402 11 254 8.0 12.9 0.00 0.00 0.00 82 1013.3
20260508133903 11 347 11.3 19.3 0.00 0.00 0.00 81 1013.4
20260508133403 11 346 9.7 14.5 0.00 0.00 0.00 81 1013.2
20260508132903 11 333 11.3 19.3 0.00 0.00 0.00 82 1012.9
20260508132403 11 351 6.4 12.9 0.00 0.00 0.00 83 1012.8
20260508131903 11 357 6.4 12.9 0.00 0.00 0.00 84 1012.7
20260508131402 10 243 4.8 9.7 0.00 0.00 0.00 85 1012.7
20260508130403 10 212 3.2 4.8 0.00 0.00 0.00 87 1012.7
20260508125403 10 246 4.8 4.8 0.00 0.00 0.00 87 1012.8
20260508124903 10 259 4.8 4.8 0.00 0.00 0.00 87 1013.0
20260508124403 10 239 4.8 4.8 0.00 0.00 0.00 87 1013.0
20260508123903 10 240 4.8 8.0 0.00 0.00 0.00 87 1012.9
20260508123403 10 236 3.2 4.8 0.00 0.00 0.00 87 1013.0
20260508122403 10 216 4.8 8.0 0.00 0.00 0.00 86 1013.1
20260508121903 10 214 4.8 8.0 0.00 0.00 0.00 87 1013.0
20260508121403 10 234 3.2 4.8 0.00 0.00 0.00 87 1013.0
20260508120903 10 234 3.2 4.8 0.00 0.00 0.00 86 1013.0
20260508120403 10 238 6.4 11.3 0.00 0.00 0.00 85 1013.0
20260508115903 10 353 8.0 19.3 0.00 0.00 0.00 85 1013.0
20260508115403 10 297 9.7 16.1 0.00 0.00 0.00 84 1012.9
20260508114403 10 0 9.7 14.5 0.00 0.00 0.00 84 1012.8
20260508113903 10 320 9.7 19.3 0.00 0.00 0.00 84 1012.6
20260508113403 10 261 11.3 19.3 0.00 0.00 0.00 84 1012.5
20260508112904 10 317 9.7 19.3 0.00 0.00 0.00 83 1012.7
20260508112403 10 352 9.7 14.5 0.00 0.00 0.00 83 1012.7
20260508111903 10 347 12.9 20.9 0.00 0.00 0.00 82 1012.7
20260508110403 10 341 9.7 19.3 0.00 0.00 0.00 79 1012.4
20260508105903 10 348 14.5 22.5 0.00 0.00 0.00 77 1012.4
20260508105404 10 355 16.1 24.1 0.00 0.00 0.00 76 1012.4
20260508104404 11 340 19.3 25.7 0.00 0.00 0.00 75 1012.4
20260508103404 10 358 16.1 20.9 0.00 0.00 0.00 77 1012.4
20260508102903 10 345 16.1 24.1 0.00 0.00 0.00 77 1012.5
20260508102404 10 345 14.5 19.3 0.00 0.00 0.00 78 1012.4
20260508101903 10 353 14.5 25.7 0.00 0.00 0.00 77 1012.4
20260508101403 10 346 12.9 19.3 0.00 0.00 0.00 77 1012.4
20260508100903 10 344 11.3 22.5 0.00 0.00 0.00 77 1012.4
20260508095903 11 352 16.1 25.7 0.00 0.00 0.00 75 1012.2
20260508095404 10 348 19.3 29.0 0.00 0.00 0.00 75 1012.3
20260508094904 10 355 16.1 25.7 0.00 0.00 0.00 76 1012.4
20260508094403 11 339 16.1 24.1 0.00 0.00 0.00 75 1012.5
20260508093904 11 333 19.3 29.0 0.00 0.00 0.00 75 1012.5
20260508093403 11 347 16.1 25.7 0.00 0.00 0.00 75 1012.5
20260508092904 11 348 19.3 27.4 0.00 0.00 0.00 74 1012.6
20260508091904 10 334 16.1 22.5 0.00 0.00 0.00 76 1012.7
20260508091403 10 345 14.5 27.4 0.00 0.00 0.00 78 1012.7
20260508090903 10 337 16.1 19.3 0.00 0.00 0.00 79 1012.7
20260508090403 10 341 12.9 19.3 0.00 0.00 0.00 80 1012.8
20260508085904 10 343 9.7 19.3 0.00 0.00 0.00 81 1012.6
20260508085404 10 269 8.0 14.5 0.00 0.00 0.00 81 1012.6
20260508084903 10 351 11.3 20.9 0.00 0.00 0.00 81 1012.5
20260508084403 10 355 8.0 9.7 0.00 0.00 0.00 81 1012.5
20260508083903 9 343 8.0 9.7 0.00 0.00 0.00 81 1012.5
20260508083404 9 0 6.4 12.9 0.00 0.00 0.00 80 1012.5
20260508082904 9 234 6.4 9.7 0.00 0.00 0.00 80 1012.5
20260508082403 10 238 4.8 8.0 0.00 0.00 0.00 79 1012.5
20260508080403 10 344 12.9 19.3 0.00 0.00 0.00 77 1012.5
20260508075403 10 327 17.7 24.1 0.00 0.00 0.00 75 1012.5
20260508074904 10 327 14.5 22.5 0.00 0.00 0.00 75 1012.5
20260508074404 10 324 17.7 27.4 0.00 0.00 0.00 76 1012.6
20260508073904 10 333 16.1 22.5 0.00 0.00 0.00 76 1012.7
20260508073404 10 336 12.9 22.5 0.00 0.00 0.00 77 1012.6
20260508072903 9 334 9.7 19.3 0.00 0.00 0.00 78 1012.7
20260508072404 10 340 14.5 20.9 0.00 0.00 0.00 78 1012.7
20260508071904 9 308 14.5 19.3 0.00 0.00 0.00 79 1012.7
20260508071404 9 347 12.9 19.3 0.00 0.00 0.00 79 1012.7
20260508070404 9 272 11.3 19.3 0.00 0.00 0.00 80 1012.7
20260508065903 9 341 12.9 19.3 0.00 0.00 0.00 81 1012.8
20260508065403 9 347 11.3 19.3 0.00 0.00 0.00 81 1012.8
20260508064905 9 334 12.9 19.3 0.00 0.00 0.00 82 1012.9
20260508063901 8 311 9.7 14.5 0.00 0.00 0.00 83 1012.9
20260508063401 8 282 8.0 14.5 0.00 0.00 0.00 84 1012.9
20260508062901 8 354 9.7 16.1 0.00 0.00 0.00 85 1012.8
20260508062401 8 301 9.7 16.1 0.00 0.00 0.00 86 1012.9
20260508061901 8 309 8.0 9.7 0.00 0.00 0.00 87 1012.9
20260508061400 8 231 6.4 9.7 0.00 0.00 0.00 87 1012.9
20260508060901 7 299 4.8 8.0 0.00 0.00 0.00 88 1012.9
20260508060401 7 217 4.8 8.0 0.00 0.00 0.00 88 1012.9
20260508055901 7 191 3.2 4.8 0.00 0.00 0.00 89 1013.0
20260508055401 7 213 4.8 8.0 0.00 0.00 0.00 88 1013.1